GEFSSE_con_probscp_168.txt.gz
Probability
1 0 0 0 0 0 0 0 0 0 0 0 0 0 0 0 0 0 0 0 0 0 0 0 0 0 0 0 0 0 0 0 0 0 0 0 0 0 0 0 0 0 0
2 1 0 0 0 0 0 0 0 1 1 0 0 0 0 0 0 0 0 0 0 0 0 0 0 0 0 0 0 0 0 0 0 0 0 0 0 0 0 0 0 0 0
2 1 0 0 0 0 0 0 1 2 1 0 0 0 0 0 0 0 0 0 0 0 0 0 0 0 0 0 0 0 0 0 0 0 0 0 0 0 0 0 0 0 0
2 1 0 0 0 0 0 1 2 3 2 1 0 0 0 0 0 0 0 0 0 0 0 0 0 0 0 0 0 0 0 0 0 0 0 0 0 0 0 0 0 0 0
1 0 0 0 0 0 0 1 2 3 3 2 1 0 0 0 0 0 0 0 0 0 0 0 0 0 0 0 0 0 0 0 0 0 0 0 0 0 0 0 0 0 0
0 1 1 1 0 0 0 1 2 3 4 3 2 1 0 0 0 0 0 0 0 0 0 0 0 0 0 0 0 0 0 0 0 0 0 0 0 0 0 0 0 0 0
0 1 2 2 1 0 0 0 1 2 3 3 3 1 1 1 0 0 0 0 0 0 0 0 0 0 0 0 0 0 0 0 0 0 0 0 0 0 0 0 0 0 0
0 1 2 2 1 0 0 0 0 1 2 3 3 2 1 0 0 0 0 0 0 0 0 0 0 0 0 0 0 0 0 0 0 0 0 0 0 0 0 0 0 0 0
0 0 1 1 1 0 0 0 0 0 1 2 2 1 0 0 0 0 0 0 0 0 0 0 0 0 0 0 0 0 0 0 0 0 0 0 0 0 0 0 0 0 0
0 1 1 0 1 1 0 0 0 0 0 1 1 0 0 0 0 0 0 0 0 0 0 0 0 0 0 0 0 0 0 0 0 0 0 0 0 0 0 0 0 0 0
1 2 2 2 2 2 0 0 0 0 0 0 0 0 0 0 0 0 0 0 0 0 0 0 0 0 0 0 0 0 0 0 0 0 0 0 0 0 0 0 0 0 0
1 3 4 5 4 2 1 1 0 0 0 0 0 0 0 0 0 1 1 0 0 0 0 0 0 0 0 0 0 0 0 0 0 0 0 0 0 0 0 0 0 0 0
2 4 6 6 5 4 3 3 1 1 1 1 1 1 1 1 2 1 1 0 0 0 0 0 0 0 0 0 0 0 0 0 0 0 0 0 0 0 0 0 0 0 0
2 5 7 6 5 5 6 5 3 1 2 2 2 2 2 3 3 3 2 1 0 0 0 0 0 0 0 0 0 0 0 0 0 0 0 0 0 0 0 0 0 0 0
4 4 5 6 6 6 6 6 4 4 4 4 3 3 3 3 4 4 3 2 2 2 1 0 0 0 0 0 0 0 0 0 0 0 0 0 0 0 0 0 0 0 0
7 7 7 8 8 7 4 4 4 6 7 5 4 4 4 4 5 5 4 3 3 3 2 1 0 0 0 0 0 0 0 0 0 0 0 0 0 0 0 0 0 0 0
14 13 11 11 11 10 5 3 4 6 6 6 6 7 7 6 6 6 4 3 3 4 3 1 0 0 0 0 0 0 0 0 0 0 0 0 0 0 0 0 0 0 0
19 18 16 14 15 15 13 10 7 6 6 6 8 9 8 7 7 7 5 4 4 4 3 1 0 0 0 0 0 0 0 0 0 0 0 0 0 0 0 0 0 0 0
20 20 19 19 19 21 21 18 13 9 9 9 10 10 10 8 7 7 7 6 6 5 3 1 0 0 0 0 0 0 0 0 0 0 0 0 0 0 0 0 0 0 0
22 22 22 24 25 25 23 21 17 14 12 12 12 11 11 10 7 6 6 7 7 6 4 2 1 0 0 0 0 0 0 0 0 0 0 0 0 0 0 0 0 0 1
28 27 27 28 29 29 27 25 23 19 15 13 12 13 14 13 10 7 6 7 9 8 6 4 3 1 0 0 0 0 0 0 0 0 0 0 0 0 0 0 0 1 1
33 31 31 32 34 35 34 33 31 27 21 16 15 15 16 17 16 12 10 10 11 10 7 5 4 3 1 0 0 0 0 0 0 0 0 0 0 0 0 0 1 1 1
33 32 32 36 40 41 39 35 32 31 28 22 19 18 19 21 21 17 15 14 13 9 7 6 4 2 0 0 1 1 1 0 0 0 0 0 0 0 0 0 1 1 1
32 30 32 39 45 45 42 36 30 28 28 26 24 22 23 23 22 20 17 16 13 9 7 6 4 2 1 1 2 2 1 1 0 0 0 0 0 0 0 0 0 0 0
30 30 32 40 47 49 46 40 32 26 25 26 26 25 25 24 22 20 17 14 11 8 8 8 6 4 3 2 3 3 1 1 0 0 0 0 0 0 0 1 1 0 0
29 30 32 39 48 50 48 42 34 27 24 23 25 26 25 25 23 20 16 12 8 7 8 9 7 6 4 4 3 3 2 1 1 1 1 0 0 0 1 2 2 1 0

GEFSSE_con_probscp_174.txt.gz
Probability
0 0 0 0 0 0 0 1 2 2 1 0 0 0 1 2 2 1 0 0 0 0 0 0 0 0 0 0 0 0 0 0 0 0 0 0 0 0 0 0 0 0 0
0 0 0 0 0 0 0 0 1 1 0 0 0 0 1 2 1 0 0 0 0 0 0 0 0 0 0 0 0 0 0 0 0 0 0 0 0 0 0 0 0 0 0
0 0 0 0 0 0 0 0 0 0 0 0 0 0 1 1 0 0 0 0 0 0 0 0 0 0 0 0 0 0 0 0 0 0 0 0 0 0 0 0 0 0 0
0 0 0 0 0 0 0 0 0 0 0 0 0 0 0 0 0 0 0 0 0 0 0 0 0 0 0 0 0 0 0 0 0 0 0 0 0 0 0 0 0 0 0
0 0 0 0 0 0 0 0 0 0 0 0 0 0 0 0 0 0 0 0 0 0 0 0 0 0 0 0 0 0 0 0 0 0 0 0 0 0 0 0 0 0 0
1 0 0 0 0 0 0 0 0 0 0 0 0 0 0 0 0 0 0 0 0 0 0 0 0 0 0 0 0 0 0 0 0 0 0 0 0 0 0 0 0 0 0
2 1 0 0 0 0 0 0 0 0 0 0 0 0 0 0 0 0 0 0 0 0 0 0 0 0 0 0 0 0 0 1 0 0 0 0 0 0 0 0 0 0 0
4 3 1 0 0 0 0 0 0 0 0 0 0 0 0 0 0 0 0 0 0 0 0 0 0 0 0 0 0 0 0 0 0 0 0 0 0 0 0 0 0 0 0
8 4 1 0 0 0 0 0 0 0 0 0 0 0 0 0 0 0 0 0 0 0 0 0 0 0 0 0 0 0 0 0 0 0 0 0 0 0 0 0 0 0 0
9 5 1 0 0 0 0 0 1 0 0 0 0 0 0 0 0 0 0 0 0 0 0 0 0 0 0 0 0 0 0 0 0 0 0 0 0 0 0 0 0 0 0
12 7 4 2 1 0 0 0 0 0 0 0 0 0 0 0 0 0 0 0 0 0 0 0 0 0 0 0 0 0 0 0 0 0 0 0 0 0 0 0 0 0 0
16 12 8 6 3 1 1 1 0 0 1 0 0 0 0 0 0 0 1 1 1 0 0 0 0 0 0 0 0 0 0 0 0 0 0 0 0 0 0 0 0 0 0
20 16 12 11 9 6 4 3 1 1 2 1 1 1 1 0 0 1 2 2 1 0 0 0 0 0 0 0 0 0 0 0 0 0 0 0 0 0 0 0 0 0 0
26 23 20 18 17 15 11 6 4 3 3 2 1 2 1 0 0 1 3 3 2 1 0 0 0 0 0 0 0 0 0 0 0 0 0 0 0 0 0 0 0 0 0
30 29 30 29 26 24 19 11 7 7 5 3 3 2 1 1 2 2 3 3 2 1 2 1 0 0 0 1 1 1 1 0 0 1 0 0 0 0 0 0 0 0 0
32 35 39 39 36 30 23 15 11 10 8 5 4 4 3 4 6 5 4 2 1 3 4 2 0 0 0 1 2 2 2 1 0 0 0 0 0 0 0 0 0 0 0
38 42 45 43 39 33 23 16 13 10 9 9 10 9 7 9 10 8 5 2 2 3 5 4 2 0 1 1 1 2 2 2 1 0 0 0 0 0 0 0 0 0 0
51 53 50 43 42 38 26 18 15 13 13 17 19 17 14 13 12 9 6 5 4 3 3 4 2 1 2 2 1 1 1 2 1 0 0 0 0 0 0 0 0 0 0
60 61 56 50 49 46 36 26 21 20 24 27 26 24 22 20 15 11 10 11 8 3 1 2 3 3 3 3 2 1 1 1 1 0 0 0 1 1 0 0 0 0 0
66 66 62 57 56 54 48 40 33 32 34 33 31 32 33 29 23 17 17 20 15 7 3 4 7 7 4 3 2 2 2 2 2 1 0 1 1 1 1 1 1 1 0
70 70 65 59 59 59 57 52 44 40 38 36 37 42 42 37 31 25 24 27 22 15 11 10 11 10 7 4 3 3 2 2 1 1 1 1 1 2 2 2 3 3 2
71 70 65 60 59 60 59 55 50 45 40 38 43 50 49 43 37 31 30 32 29 24 21 19 15 11 8 6 5 4 2 1 1 1 1 2 2 2 2 2 4 6 5
68 67 63 60 61 60 57 52 50 49 44 41 46 52 51 47 43 38 35 35 33 30 27 24 19 14 9 7 6 6 4 3 1 1 2 3 3 3 2 1 3 6 8
65 63 60 61 63 63 57 52 53 52 47 45 48 51 51 49 46 42 38 36 35 30 27 26 22 17 11 7 6 6 6 4 2 1 2 3 3 3 2 1 1 3 7
64 63 62 65 67 65 60 56 57 56 52 49 50 51 50 48 45 42 39 38 36 32 28 28 25 19 12 8 7 7 7 5 2 1 1 1 2 1 1 0 0 1 4
66 66 67 69 69 67 62 58 59 59 55 51 51 52 49 46 44 41 39 38 37 34 32 31 27 18 11 9 8 8 8 6 2 0 0 1 2 1 0 0 0 1 1

GEFSSE_con_probscp_180.txt.gz
Probability
3 3 3 3 3 4 5 6 6 6 7 7 6 5 6 7 7 8 8 7 6 7 7 6 4 3 3 3 3 3 3 3 3 3 3 3 3 3 3 3 3 3 3
3 3 3 3 4 4 4 5 6 6 6 7 6 5 6 6 6 6 7 7 6 6 6 4 3 3 3 3 3 3 3 3 3 3 3 3 3 3 3 3 3 3 3
3 3 3 4 4 4 3 4 4 4 5 5 4 4 5 5 5 6 6 6 6 5 4 3 3 3 3 3 3 3 3 3 3 3 2 2 3 3 3 3 3 3 3
3 3 3 3 4 3 3 3 3 3 3 4 3 3 3 4 4 5 6 6 5 5 4 3 3 3 3 3 3 3 3 3 3 2 1 1 2 3 3 3 3 3 3
3 3 3 3 3 3 3 3 3 3 3 3 3 3 3 3 3 4 4 4 4 4 3 3 3 3 3 3 3 3 3 3 2 1 0 1 2 3 3 3 3 3 3
3 3 3 3 3 3 3 3 3 3 3 3 3 3 3 3 3 3 3 3 3 3 3 3 3 3 3 3 3 3 3 3 1 0 0 1 3 3 3 3 3 3 3
3 3 3 3 3 3 3 3 3 3 3 3 3 3 3 3 3 3 3 3 3 3 3 3 3 3 3 3 3 3 3 2 1 0 0 2 3 3 3 3 3 3 3
3 3 3 3 3 3 3 3 3 3 3 3 3 3 3 3 3 3 3 3 3 3 3 3 3 3 3 3 3 3 3 2 0 0 0 1 3 3 3 3 3 3 3
3 3 3 3 3 3 3 3 2 3 3 3 3 3 3 3 3 3 3 3 3 3 3 3 3 3 3 3 3 3 3 2 0 0 1 1 3 3 3 3 3 3 3
3 3 3 3 3 3 3 2 1 1 2 3 3 3 3 3 2 3 3 3 3 3 3 3 3 3 3 3 3 3 2 1 0 1 2 3 3 3 3 3 3 3 3
3 3 3 3 3 3 3 2 1 0 1 2 2 2 2 1 1 1 3 3 3 3 3 3 3 3 3 3 3 2 1 0 0 2 3 3 3 3 3 3 3 3 3
3 3 3 3 3 3 3 2 1 0 0 1 1 1 1 0 0 1 2 3 3 3 3 2 2 2 1 1 2 1 0 0 0 1 3 3 3 3 3 3 3 3 3
3 3 3 3 3 3 3 3 1 0 0 0 0 0 0 0 0 0 1 2 2 2 1 1 1 1 0 0 0 0 0 0 0 1 2 3 3 3 3 3 3 3 3
3 3 3 3 3 3 3 3 2 1 0 0 0 0 0 0 0 0 0 1 1 1 0 0 0 0 0 0 0 0 0 0 0 1 2 3 3 3 3 3 3 3 3
4 4 3 3 3 3 3 3 3 2 1 0 0 0 0 0 0 0 0 0 0 0 0 0 0 0 0 0 0 0 0 0 0 1 2 3 3 3 3 3 3 2 2
8 6 4 3 3 4 3 3 3 3 2 1 0 0 0 0 0 0 0 0 0 0 0 0 0 0 0 0 0 0 0 0 0 1 2 3 3 3 3 3 2 1 1
15 11 7 4 4 5 5 4 3 3 3 2 1 0 0 0 0 0 0 0 0 0 0 0 0 0 0 0 0 0 0 0 0 0 1 1 2 3 3 3 3 2 1
23 19 14 10 9 8 7 5 4 3 3 3 2 1 0 0 0 0 0 0 0 0 0 0 0 0 0 0 0 0 0 0 0 0 0 0 1 1 2 3 3 3 3
31 27 22 19 16 13 10 8 7 6 4 4 3 2 1 1 0 0 0 0 0 0 0 0 0 0 0 0 0 0 0 0 0 0 0 0 0 0 1 1 2 3 3
35 32 30 27 24 20 15 13 12 10 7 6 5 3 3 3 2 0 0 0 0 0 0 0 0 0 0 0 0 0 0 0 0 0 0 0 0 0 0 0 1 1 2
36 37 37 34 29 26 23 20 16 12 10 10 7 5 5 5 5 2 1 1 0 0 0 1 1 0 0 0 0 0 0 0 0 0 0 0 0 0 0 0 0 0 1
38 41 41 36 31 28 27 24 17 12 12 12 12 9 8 9 8 5 1 0 0 0 1 2 2 1 0 0 0 0 0 0 0 0 0 0 0 0 0 0 0 0 0
41 42 41 34 28 27 28 25 19 13 13 13 14 15 15 14 12 8 3 1 1 1 2 3 2 1 0 0 0 0 0 0 0 0 0 0 0 0 0 0 0 0 0
45 44 40 33 28 27 27 25 20 15 12 10 11 16 19 18 16 12 7 4 2 2 2 3 2 1 0 0 0 0 0 0 0 0 0 0 0 0 1 0 0 0 0
49 45 40 35 32 30 28 25 22 16 11 7 8 12 16 18 19 17 12 6 3 2 1 1 1 1 0 0 0 0 0 0 0 0 0 0 0 0 0 0 0 0 0
52 46 40 37 34 32 28 25 23 18 12 8 8 9 12 16 20 20 15 6 2 1 1 0 1 0 0 0 0 0 0 0 0 0 0 0 0 0 0 1 1 1 0

GEFSSE_con_probscp_186.txt.gz
Probability
0 0 0 0 0 0 0 1 3 3 1 1 2 2 1 1 3 4 5 5 3 2 1 0 0 0 0 0 0 0 0 0 0 0 0 0 0 0 0 0 0 0 0
0 0 0 0 0 0 0 1 3 3 2 2 3 3 3 4 4 5 5 4 3 2 0 0 0 0 0 0 0 0 0 0 0 0 0 0 0 0 0 0 0 0 0
0 0 0 0 0 0 0 1 3 3 3 3 3 4 5 6 6 5 5 4 3 2 1 0 0 0 0 0 0 0 0 0 0 0 0 0 0 0 0 0 0 0 0
0 0 0 0 0 0 1 2 3 3 3 2 2 3 3 5 5 5 4 3 3 2 1 1 0 0 0 0 0 0 0 0 0 0 0 0 0 0 0 0 0 0 0
0 0 0 0 0 0 1 2 3 3 2 1 1 1 1 2 3 4 3 2 1 2 2 1 0 0 0 0 0 0 0 0 0 0 0 0 0 0 0 0 0 0 0
0 0 0 0 0 0 1 2 3 3 2 1 0 0 0 1 2 3 3 2 1 1 1 1 0 0 0 0 0 0 0 0 0 0 0 0 0 0 0 0 0 0 0
1 1 0 0 0 0 0 1 2 2 2 1 0 0 0 0 1 2 2 1 0 0 0 0 0 0 0 0 0 0 0 0 0 0 0 0 0 0 0 0 0 0 0
2 2 1 0 0 0 0 0 1 1 1 0 0 0 0 0 0 1 1 0 0 0 0 0 0 0 0 0 0 0 0 0 0 0 0 0 0 0 0 0 0 0 0
4 4 3 1 0 0 0 0 0 0 0 0 0 0 0 0 0 0 0 0 0 0 0 0 0 0 0 0 0 0 0 0 0 0 0 0 0 0 0 0 0 0 0
5 5 3 1 0 0 0 0 1 1 0 0 0 0 0 0 0 0 0 0 0 0 0 0 0 0 0 0 0 0 0 0 0 0 0 0 0 0 0 0 0 0 0
4 3 2 1 0 0 0 0 1 1 0 0 0 0 0 0 0 0 0 0 0 0 0 0 0 0 0 0 0 0 0 0 0 0 0 0 0 0 0 0 0 0 0
2 1 0 0 0 0 0 0 1 1 0 0 0 0 0 0 0 0 0 0 0 0 0 0 0 0 0 0 0 0 0 0 0 0 0 0 0 0 0 0 0 0 0
2 1 0 0 0 0 0 0 0 0 0 0 0 0 0 0 0 0 0 0 0 0 0 0 0 0 0 0 0 0 0 0 0 0 0 0 0 0 0 0 0 0 0
1 0 0 0 0 0 0 0 0 0 0 0 0 0 0 0 0 0 0 0 0 0 0 0 0 0 0 0 0 0 0 0 0 0 0 0 0 0 0 0 0 0 0
0 0 0 0 0 0 0 0 0 0 0 0 0 0 0 0 0 0 0 0 0 0 0 0 0 0 0 0 0 0 0 0 0 0 0 0 0 0 0 0 0 0 0
0 0 0 0 0 0 0 0 0 0 0 0 0 0 0 0 0 0 0 0 0 0 0 0 0 0 0 0 0 0 0 0 0 0 0 0 0 0 0 0 0 0 0
0 0 0 0 0 1 1 1 0 0 0 0 0 0 0 0 0 0 0 0 0 0 0 0 0 0 0 0 0 0 0 0 0 0 0 0 0 0 0 0 0 0 0
2 1 1 1 1 1 2 1 0 0 0 0 0 0 0 0 0 0 0 0 0 0 0 0 0 0 0 0 0 0 0 0 0 0 0 0 0 0 0 0 0 0 0
5 4 3 2 3 3 2 1 0 0 0 0 0 0 0 0 0 0 0 0 0 0 0 0 0 0 0 0 0 0 0 0 0 0 0 0 0 0 0 0 0 0 0
7 6 5 3 4 3 2 1 0 0 0 0 0 0 0 0 0 0 0 0 0 0 0 0 0 0 0 0 0 0 0 0 0 0 0 0 0 0 0 0 0 0 0
9 7 5 4 3 2 2 1 1 0 0 0 0 0 0 0 0 1 1 0 0 0 0 0 0 0 0 0 0 0 0 0 0 0 0 0 0 0 0 0 0 0 0
14 11 9 6 4 3 2 2 2 1 1 1 0 0 0 0 0 1 1 0 0 0 0 0 0 0 0 0 0 0 0 0 0 0 0 0 0 0 0 0 0 0 0
20 17 13 11 8 7 5 4 4 4 4 3 2 2 2 0 0 0 0 0 0 0 0 0 0 0 0 0 0 0 0 0 0 0 0 0 0 0 0 0 0 0 0
23 20 16 14 13 13 11 9 9 9 7 5 5 5 4 2 0 1 1 1 0 0 0 0 0 0 0 0 0 0 0 0 0 0 0 0 0 0 0 0 0 0 0
22 20 17 15 15 16 16 15 14 11 7 5 5 6 6 3 2 2 3 2 1 1 0 0 0 0 1 0 0 0 0 0 0 0 0 0 0 0 0 0 0 0 0
22 19 16 15 14 15 17 17 14 10 6 4 5 7 7 5 3 2 3 3 2 2 1 0 0 0 1 0 0 0 0 0 0 0 0 0 0 0 0 0 0 0 0

GEFSSE_con_probscp_192.txt.gz
Probability
1 3 6 6 6 7 8 9 10 10 10 10 10 10 10 10 10 11 10 9 7 7 7 6 6 6 6 6 6 6 5 5 6 6 5 4 3 3 3 3 3 3 3
1 4 6 6 6 7 8 9 10 10 10 11 10 9 9 9 9 9 9 8 8 8 7 6 6 6 6 6 6 6 6 6 6 6 5 3 3 3 3 3 3 4 4
2 5 6 6 6 7 9 10 9 9 10 10 10 8 7 7 7 7 7 8 8 8 7 6 6 6 6 6 6 6 6 6 5 5 4 2 3 3 3 3 4 5 5
4 5 6 6 6 7 8 9 8 8 8 8 8 8 7 7 7 7 7 7 7 7 7 6 6 6 6 6 6 6 5 4 3 2 1 1 3 4 4 4 4 4 5
4 4 6 6 6 7 7 8 7 7 6 6 7 8 8 8 8 8 7 6 6 6 6 6 6 6 6 6 6 5 3 2 1 0 0 1 3 5 6 6 5 4 4
3 4 6 6 7 7 7 7 8 8 7 7 7 7 7 7 7 7 7 6 6 6 6 6 6 6 6 6 6 5 2 0 0 0 0 1 4 6 6 5 4 3 3
1 3 5 6 7 7 7 8 8 8 8 7 6 6 6 6 6 6 6 6 6 6 6 6 6 6 6 6 6 5 2 0 0 0 0 2 5 5 4 3 2 1 2
0 2 5 6 7 7 7 7 7 6 6 6 6 6 6 6 5 5 5 5 6 6 6 6 6 6 6 6 6 4 2 0 0 0 0 2 4 4 3 2 1 0 1
0 1 4 6 6 5 5 5 4 4 4 4 5 5 5 4 4 3 2 3 4 4 4 4 5 6 6 6 5 3 2 0 0 0 0 1 2 3 3 2 1 0 0
0 1 3 4 4 3 3 4 3 3 3 4 5 5 5 4 3 2 2 1 1 1 1 2 3 5 6 6 4 3 2 1 0 0 1 2 3 2 1 1 0 0 0
1 2 3 3 3 1 1 3 3 3 3 4 5 6 6 4 3 3 2 1 0 0 0 0 2 4 6 5 4 3 2 1 0 0 2 3 3 2 1 0 0 0 0
4 4 4 4 3 1 1 2 2 2 4 5 6 6 6 4 2 2 2 1 0 0 0 0 0 2 3 4 4 3 2 1 0 0 1 3 3 3 1 0 0 0 0
6 6 6 5 4 3 2 1 2 3 5 6 6 6 6 4 2 1 2 1 0 0 0 0 0 0 2 3 3 3 2 1 0 0 1 2 3 3 2 1 0 0 0
6 7 7 6 6 5 4 2 2 4 5 6 6 6 6 4 2 1 1 1 0 0 0 0 0 1 2 3 3 3 2 1 0 0 1 1 2 3 3 1 0 0 0
6 6 7 7 7 6 6 4 3 4 5 6 6 6 6 5 3 1 1 0 0 0 0 0 0 1 3 3 3 3 3 1 0 0 0 0 1 2 2 1 0 0 0
5 5 7 8 8 7 7 6 4 4 4 5 5 6 6 4 2 0 1 1 0 0 0 0 1 2 3 3 3 3 3 2 1 1 0 0 0 1 1 1 0 0 0
5 6 8 9 9 9 8 6 4 3 4 4 4 5 5 3 2 1 2 2 1 0 0 1 2 3 3 3 3 3 3 3 2 1 0 0 0 0 0 0 0 0 0
7 8 9 10 10 10 9 7 5 4 4 3 3 4 4 4 4 5 5 4 2 1 2 3 4 3 3 3 3 3 3 3 2 1 0 0 0 0 0 0 0 0 0
11 11 10 11 11 11 11 9 7 6 6 5 4 4 6 7 8 9 8 6 4 3 4 4 4 3 3 3 3 3 3 3 3 2 1 0 0 0 0 0 0 0 0
14 13 13 13 13 13 13 11 10 9 8 6 6 7 8 10 11 10 9 8 7 6 6 5 4 3 3 3 3 3 3 3 3 3 2 1 0 0 0 0 0 0 1
18 17 16 16 16 16 14 12 10 10 9 8 7 8 10 12 12 12 10 8 8 8 7 6 5 4 3 3 3 3 3 3 3 3 3 2 1 0 0 0 0 1 2
22 20 18 16 16 17 16 12 10 10 11 9 8 9 12 13 14 14 13 11 10 9 8 7 5 4 3 4 4 4 3 2 3 3 3 3 3 2 1 1 1 2 3
25 23 19 18 18 19 19 15 13 14 14 12 11 12 15 16 15 16 17 16 14 11 10 10 8 6 5 6 7 6 4 3 2 2 2 4 4 4 3 2 2 2 2
28 24 22 21 22 22 23 21 20 19 17 15 15 16 17 17 16 17 19 20 20 17 16 15 12 11 10 10 10 9 6 4 3 2 3 5 5 4 4 4 2 1 1
26 25 25 27 26 26 26 26 25 22 19 18 18 17 17 15 15 16 18 21 24 23 20 17 16 16 16 15 14 12 9 6 4 4 4 5 5 4 4 4 3 1 0
25 24 28 31 31 29 27 28 27 23 21 21 20 18 15 13 14 15 17 22 25 24 20 18 18 18 18 17 16 13 11 7 6 6 5 5 5 4 4 4 3 2 1

GEFSSE_con_probscp_198.txt.gz
Probability
0 0 1 1 2 4 6 6 6 6 5 4 3 4 4 5 5 6 6 6 5 2 1 1 1 1 0 0 0 1 1 1 0 0 0 0 0 0 0 0 0 0 0
0 0 1 1 2 4 5 6 5 4 3 3 2 2 2 3 4 4 5 5 3 1 1 1 1 0 0 0 0 0 0 0 0 0 0 0 0 0 0 0 0 0 0
0 0 0 1 2 3 4 3 2 1 1 1 1 0 0 1 2 2 2 3 2 1 1 1 0 0 0 0 0 0 0 0 0 0 0 0 0 0 0 0 0 0 0
0 0 0 0 1 1 1 1 0 0 0 0 0 0 0 0 1 1 1 2 2 1 1 1 0 0 0 0 0 0 0 0 0 0 0 0 0 0 0 0 0 0 0
0 0 0 0 0 0 0 0 0 0 0 0 0 0 0 0 0 0 1 2 2 1 0 0 0 0 0 0 0 0 0 0 0 0 0 0 0 0 0 0 0 0 0
0 0 0 0 0 0 0 0 0 0 0 0 0 0 0 0 0 0 0 1 1 0 0 0 0 0 0 0 0 0 0 0 0 0 0 0 0 0 0 0 0 0 0
1 0 0 0 0 0 0 0 0 0 0 0 0 0 0 0 0 0 0 0 0 0 0 0 0 0 0 0 0 0 0 0 0 0 0 0 0 0 0 0 0 0 0
4 2 0 0 0 0 0 0 0 0 0 0 0 0 0 0 0 0 0 0 0 0 0 0 0 0 0 0 0 0 1 1 1 0 0 0 0 0 0 0 0 0 0
6 4 2 0 0 0 0 0 0 0 0 0 0 0 0 0 0 0 0 0 0 0 0 0 0 0 0 0 0 0 1 1 1 0 0 0 0 0 0 0 0 0 0
6 5 3 1 0 0 0 0 0 0 0 0 0 0 0 0 0 0 0 0 0 0 0 0 0 0 0 0 0 0 1 1 0 0 0 0 0 0 0 0 0 0 0
5 6 5 3 2 0 0 0 0 0 0 0 0 0 0 0 0 0 1 1 0 0 0 0 0 0 0 0 0 0 0 0 0 0 0 0 0 0 0 0 0 0 0
4 6 6 6 4 2 0 0 0 0 0 0 0 0 0 0 0 0 1 1 0 0 0 0 0 0 0 0 0 0 0 0 0 0 0 0 0 0 0 0 0 0 0
5 6 7 7 6 3 2 2 1 0 0 0 0 0 0 0 0 0 1 1 0 0 0 0 0 0 0 0 0 0 0 0 0 0 0 0 0 0 0 0 0 0 0
6 7 8 8 7 5 4 3 2 2 2 1 0 0 0 0 0 0 0 0 0 0 0 0 0 0 0 0 0 0 0 0 0 0 0 0 0 0 0 0 0 0 0
10 9 9 8 8 7 5 4 3 3 3 2 1 1 1 0 0 0 0 0 0 1 1 1 0 0 0 0 0 0 0 0 0 0 0 0 0 0 0 0 0 0 0
17 15 12 10 8 7 4 4 4 4 3 3 3 3 2 1 0 0 0 0 0 1 2 2 1 0 0 0 0 0 0 0 0 0 0 0 0 0 0 0 0 0 0
26 24 17 12 10 9 5 4 4 3 3 4 4 4 3 2 2 1 0 0 0 0 1 2 2 1 0 0 0 0 0 1 1 1 1 1 1 1 1 0 0 0 0
35 32 24 16 14 12 8 5 4 4 4 4 4 4 4 4 4 3 1 1 1 0 0 1 1 1 1 0 0 0 1 2 2 1 1 1 2 2 2 1 1 0 0
40 38 32 26 22 16 11 9 7 6 5 5 6 9 9 8 6 4 3 3 3 2 1 1 1 2 2 1 0 0 1 2 2 1 1 1 2 4 4 3 2 1 1
43 44 41 36 31 24 17 14 13 11 9 7 9 15 18 13 8 4 4 7 6 4 3 4 4 4 4 3 2 1 0 1 1 2 2 2 3 5 6 6 6 4 3
48 48 45 41 37 31 25 21 20 18 13 9 13 22 26 20 11 6 6 9 9 7 7 9 8 8 8 8 6 2 0 0 1 2 5 5 4 4 6 9 10 8 7
55 52 48 45 42 35 29 26 25 24 19 14 19 29 30 24 17 13 13 15 14 12 12 13 13 11 10 11 10 5 2 1 0 2 6 7 5 4 5 7 11 12 11
60 57 53 52 50 42 35 30 30 31 28 25 29 35 32 27 24 24 24 24 22 19 17 16 15 13 10 10 11 8 4 2 1 2 4 6 6 5 4 4 8 11 12
59 57 58 59 57 52 44 38 37 38 36 33 35 38 35 30 28 28 29 29 28 25 21 18 15 12 10 9 12 11 7 5 3 2 2 3 5 6 4 3 4 8 12
53 55 60 63 63 60 52 44 41 41 39 36 35 37 37 31 27 26 28 30 30 27 25 23 19 14 12 11 12 12 12 10 6 2 1 1 3 5 5 4 4 8 11
51 54 59 65 66 63 55 45 41 42 40 36 35 35 34 30 26 25 27 31 31 27 26 26 23 17 14 13 12 13 13 12 7 2 0 0 2 4 5 5 5 9 13